| time (UTC) | temp C | wind direction | speed KPH | gust KPH | rain 1hr cm | rain 24hr cm | rain mn cm | humidity % | barometer mb |
| 20260507211113 | 18 | 282 | 16.1 | 22.5 | 0.00 | 1.02 | 1.02 | 34 | 1010.5 |
| 20260507210611 | 18 | 217 | 9.7 | 12.9 | 0.00 | 1.02 | 1.02 | 36 | 1010.4 |
| 20260507210107 | 18 | 288 | 3.2 | 3.2 | 0.00 | 1.02 | 1.02 | 36 | 1010.3 |
| 20260507205603 | 19 | 14 | 3.2 | 6.4 | 0.00 | 1.02 | 1.02 | 36 | 1010.4 |
| 20260507205100 | 18 | 340 | 3.2 | 12.9 | 0.00 | 1.02 | 1.02 | 40 | 1010.6 |
| 20260507204556 | 18 | 286 | 6.4 | 11.3 | 0.00 | 1.02 | 1.02 | 39 | 1010.5 |
| 20260507204054 | 18 | 13 | 8.0 | 9.7 | 0.00 | 1.02 | 1.02 | 37 | 1010.5 |
| 20260507203552 | 19 | 310 | 6.4 | 6.4 | 0.00 | 1.02 | 1.02 | 35 | 1010.3 |
| 20260507203049 | 18 | 315 | 4.8 | 6.4 | 0.00 | 1.02 | 1.02 | 38 | 1010.5 |
| 20260507202544 | 18 | 340 | 6.4 | 11.3 | 0.00 | 1.02 | 1.02 | 36 | 1010.6 |
| 20260507202041 | 18 | 245 | 6.4 | 11.3 | 0.00 | 1.02 | 1.02 | 36 | 1010.8 |
| 20260507201536 | 20 | 299 | 9.7 | 12.9 | 0.00 | 1.02 | 1.02 | 33 | 1010.8 |
| 20260507201033 | 21 | 259 | 4.8 | 6.4 | 0.00 | 1.02 | 1.02 | 33 | 1010.6 |
| 20260507200529 | 20 | 24 | 4.8 | 11.3 | 0.00 | 1.02 | 1.02 | 34 | 1010.5 |
| 20260507200025 | 20 | 263 | 6.4 | 12.9 | 0.00 | 1.02 | 1.02 | 35 | 1010.6 |
| 20260507195522 | 19 | 284 | 3.2 | 14.5 | 0.00 | 1.02 | 1.02 | 37 | 1010.5 |
| 20260507195020 | 19 | 260 | 14.5 | 17.7 | 0.00 | 1.02 | 1.02 | 37 | 1010.6 |
| 20260507194516 | 20 | 293 | 4.8 | 12.9 | 0.00 | 1.02 | 1.02 | 36 | 1010.7 |
| 20260507194012 | 20 | 329 | 6.4 | 6.4 | 0.00 | 1.02 | 1.02 | 34 | 1010.4 |
| 20260507193509 | 20 | 22 | 3.2 | 9.7 | 0.00 | 1.02 | 1.02 | 36 | 1010.5 |
| 20260507193006 | 20 | 259 | 9.7 | 14.5 | 0.00 | 1.02 | 1.02 | 34 | 1010.9 |
| 20260507192502 | 20 | 278 | 8.0 | 9.7 | 0.00 | 1.02 | 1.02 | 35 | 1010.9 |
| 20260507191959 | 20 | 286 | 12.9 | 20.9 | 0.00 | 1.02 | 1.02 | 30 | 1010.8 |
| 20260507191454 | 20 | 220 | 4.8 | 11.3 | 0.00 | 1.02 | 1.02 | 36 | 1010.6 |
| 20260507190952 | 20 | 323 | 9.7 | 20.9 | 0.00 | 1.02 | 1.02 | 36 | 1010.6 |
| 20260507190449 | 20 | 114 | 1.6 | 4.8 | 0.00 | 1.02 | 1.02 | 38 | 1010.6 |
| 20260507185948 | 20 | 31 | 0.0 | 4.8 | 0.00 | 1.02 | 1.02 | 35 | 1010.8 |
| 20260507185445 | 20 | 277 | 6.4 | 12.9 | 0.00 | 1.02 | 1.02 | 34 | 1011.0 |
| 20260507184941 | 20 | 294 | 3.2 | 12.9 | 0.00 | 1.02 | 1.02 | 37 | 1010.9 |
| 20260507184440 | 20 | 274 | 6.4 | 14.5 | 0.00 | 1.02 | 1.02 | 31 | 1011.0 |
| 20260507183937 | 19 | 282 | 4.8 | 9.7 | 0.00 | 1.02 | 1.02 | 33 | 1010.9 |
| 20260507183434 | 20 | 300 | 4.8 | 6.4 | 0.00 | 1.02 | 1.02 | 32 | 1010.9 |
| 20260507182931 | 20 | 273 | 1.6 | 4.8 | 0.00 | 1.02 | 1.02 | 35 | 1010.8 |
| 20260507182427 | 20 | 283 | 6.4 | 9.7 | 0.00 | 1.02 | 1.02 | 34 | 1011.0 |
| 20260507181923 | 19 | 351 | 4.8 | 6.4 | 0.00 | 1.02 | 1.02 | 37 | 1010.9 |
| 20260507181419 | 19 | 263 | 4.8 | 9.7 | 0.00 | 1.02 | 1.02 | 40 | 1010.8 |
| 20260507180916 | 19 | 230 | 8.0 | 14.5 | 0.00 | 1.02 | 1.02 | 34 | 1011.2 |
| 20260507180413 | 20 | 286 | 12.9 | 17.7 | 0.00 | 1.02 | 1.02 | 35 | 1011.0 |
| 20260507175909 | 20 | 195 | 3.2 | 14.5 | 0.00 | 1.02 | 1.02 | 34 | 1011.0 |
| 20260507175406 | 20 | 308 | 3.2 | 6.4 | 0.00 | 1.02 | 1.02 | 37 | 1011.2 |
| 20260507174903 | 19 | 14 | 4.8 | 9.7 | 0.00 | 1.02 | 1.02 | 37 | 1011.2 |
| 20260507174401 | 19 | 316 | 6.4 | 6.4 | 0.00 | 1.02 | 1.02 | 40 | 1011.4 |
| 20260507173858 | 20 | 204 | 3.2 | 4.8 | 0.00 | 1.02 | 1.02 | 32 | 1011.6 |
| 20260507173355 | 19 | 261 | 1.6 | 4.8 | 0.00 | 1.02 | 1.02 | 36 | 1011.6 |
| 20260507172851 | 18 | 270 | 6.4 | 14.5 | 0.00 | 1.02 | 1.02 | 40 | 1011.7 |
| 20260507172348 | 18 | 243 | 9.7 | 12.9 | 0.00 | 1.02 | 1.02 | 36 | 1011.7 |
| 20260507171844 | 18 | 337 | 3.2 | 11.3 | 0.00 | 1.02 | 1.02 | 44 | 1011.6 |
| 20260507171341 | 19 | 311 | 8.0 | 11.3 | 0.00 | 1.02 | 1.02 | 37 | 1011.6 |
| 20260507170838 | 18 | 308 | 3.2 | 12.9 | 0.00 | 1.02 | 1.02 | 42 | 1011.9 |
| 20260507170334 | 18 | 349 | 4.8 | 9.7 | 0.00 | 1.02 | 1.02 | 37 | 1012.0 |
| 20260507165830 | 18 | 244 | 6.4 | 9.7 | 0.00 | 1.02 | 1.02 | 39 | 1012.2 |
| 20260507165326 | 18 | 228 | 4.8 | 6.4 | 0.00 | 1.02 | 1.02 | 35 | 1012.3 |
| 20260507164823 | 18 | 165 | 9.7 | 11.3 | 0.00 | 1.02 | 1.02 | 37 | 1012.2 |
| 20260507164320 | 18 | 276 | 3.2 | 6.4 | 0.00 | 1.02 | 1.02 | 37 | 1012.3 |
| 20260507163817 | 18 | 236 | 4.8 | 4.8 | 0.00 | 1.02 | 1.02 | 41 | 1012.6 |
| 20260507163314 | 18 | 267 | 6.4 | 12.9 | 0.00 | 1.02 | 1.02 | 42 | 1012.6 |
| 20260507162810 | 17 | 265 | 8.0 | 11.3 | 0.00 | 1.02 | 1.02 | 38 | 1012.5 |
| 20260507162307 | 17 | 47 | 3.2 | 3.2 | 0.00 | 1.02 | 1.02 | 40 | 1012.6 |
| 20260507161804 | 17 | 14 | 8.0 | 12.9 | 3.66 | 1.02 | 1.02 | 41 | 1012.7 |
| 20260507161300 | 17 | 281 | 6.4 | 9.7 | 3.66 | 1.02 | 1.02 | 44 | 1012.8 |
| 20260507160756 | 17 | 293 | 4.8 | 9.7 | 1.98 | 0.41 | 0.41 | 42 | 1012.8 |
| 20260507160252 | 17 | 338 | 0.0 | 3.2 | 2.46 | 0.41 | 0.41 | 44 | 1012.9 |
| 20260507155748 | 16 | 2 | 9.7 | 16.1 | 0.00 | 0.00 | 0.00 | 40 | 1012.9 |
| 20260507155244 | 16 | 336 | 6.4 | 12.9 | 0.00 | 0.00 | 0.00 | 44 | 1013.0 |
| 20260507154741 | 17 | 327 | 3.2 | 9.7 | 0.00 | 0.00 | 0.00 | 45 | 1013.3 |
| 20260507154239 | 16 | 345 | 3.2 | 4.8 | 0.00 | 0.00 | 0.00 | 44 | 1013.4 |
| 20260507153735 | 16 | 27 | 4.8 | 12.9 | 0.00 | 0.00 | 0.00 | 48 | 1013.3 |
| 20260507153232 | 16 | 2 | 3.2 | 4.8 | 0.00 | 0.00 | 0.00 | 48 | 1013.4 |
| 20260507152728 | 16 | 254 | 4.8 | 6.4 | 0.00 | 0.00 | 0.00 | 43 | 1013.4 |
| 20260507152225 | 16 | 326 | 9.7 | 14.5 | 0.00 | 0.00 | 0.00 | 43 | 1013.6 |
| 20260507151721 | 16 | 26 | 6.4 | 9.7 | 0.00 | 0.00 | 0.00 | 50 | 1013.5 |
| 20260507151218 | 16 | 62 | 1.6 | 3.2 | 0.00 | 0.00 | 0.00 | 45 | 1013.7 |
| 20260507150714 | 15 | 271 | 1.6 | 12.9 | 0.00 | 0.00 | 0.00 | 48 | 1013.9 |
| 20260507150211 | 15 | 338 | 4.8 | 11.3 | 0.00 | 0.00 | 0.00 | 47 | 1014.0 |
| 20260507145707 | 15 | 333 | 4.8 | 9.7 | 0.00 | 0.00 | 0.00 | 54 | 1014.0 |
| 20260507145204 | 15 | 352 | 6.4 | 6.4 | 0.00 | 0.00 | 0.00 | 47 | 1014.0 |
| 20260507144700 | 15 | 28 | 8.0 | 11.3 | 0.00 | 0.00 | 0.00 | 50 | 1014.2 |
| 20260507144159 | 15 | 63 | 3.2 | 6.4 | 0.00 | 0.00 | 0.00 | 48 | 1014.4 |
| 20260507143655 | 15 | 322 | 9.7 | 11.3 | 0.00 | 0.00 | 0.00 | 49 | 1014.4 |
| 20260507143152 | 15 | 336 | 4.8 | 6.4 | 0.00 | 0.00 | 0.00 | 53 | 1014.5 |
| 20260507142648 | 15 | 170 | 0.0 | 3.2 | 0.00 | 0.00 | 0.00 | 47 | 1014.6 |
| 20260507142145 | 15 | 235 | 3.2 | 4.8 | 0.00 | 0.00 | 0.00 | 51 | 1014.5 |
| 20260507141641 | 15 | 267 | 6.4 | 9.7 | 0.00 | 0.00 | 0.00 | 54 | 1014.6 |
| 20260507141138 | 14 | 257 | 1.6 | 4.8 | 0.00 | 0.00 | 0.00 | 54 | 1014.7 |
| 20260507140634 | 14 | 327 | 4.8 | 11.3 | 0.00 | 0.00 | 0.00 | 51 | 1015.0 |
| 20260507140132 | 14 | 256 | 8.0 | 11.3 | 0.00 | 0.00 | 0.00 | 53 | 1015.0 |
| 20260507135629 | 14 | 29 | 8.0 | 11.3 | 0.00 | 0.00 | 0.00 | 48 | 1015.0 |
| 20260507135126 | 13 | 351 | 0.0 | 1.6 | 0.00 | 0.00 | 0.00 | 52 | 1015.1 |
| 20260507134622 | 13 | 136 | 1.6 | 4.8 | 0.00 | 0.00 | 0.00 | 52 | 1015.1 |
| 20260507134119 | 13 | 198 | 6.4 | 6.4 | 0.00 | 0.00 | 0.00 | 60 | 1015.2 |
| 20260507133614 | 13 | 134 | 1.6 | 4.8 | 0.00 | 0.00 | 0.00 | 54 | 1015.1 |
| 20260507133112 | 13 | 158 | 3.2 | 4.8 | 0.00 | 0.00 | 0.00 | 58 | 1015.6 |
| 20260507132609 | 13 | 97 | 1.6 | 3.2 | 0.00 | 0.00 | 0.00 | 57 | 1015.4 |
| 20260507132105 | 12 | 122 | 3.2 | 4.8 | 0.00 | 0.00 | 0.00 | 59 | 1015.4 |
| 20260507131602 | 12 | 139 | 1.6 | 3.2 | 0.00 | 0.00 | 0.00 | 60 | 1015.7 |
| 20260507131100 | 12 | 102 | 1.6 | 4.8 | 0.00 | 0.00 | 0.00 | 59 | 1015.7 |
| 20260507130556 | 11 | 128 | 1.6 | 3.2 | 0.00 | 0.00 | 0.00 | 62 | 1015.7 |
| 20260507130054 | 11 | 152 | 1.6 | 4.8 | 0.00 | 0.00 | 0.00 | 64 | 1015.9 |
| 20260507125553 | 11 | 216 | 0.0 | 1.6 | 0.00 | 0.00 | 0.00 | 67 | 1015.7 |
| 20260507125050 | 11 | 216 | 3.2 | 3.2 | 0.00 | 0.00 | 0.00 | 67 | 1016.0 |
| 20260507124546 | 11 | 184 | 1.6 | 1.6 | 0.00 | 0.00 | 0.00 | 66 | 1015.9 |
| 20260507124044 | 11 | 184 | 0.0 | 3.2 | 0.00 | 0.00 | 0.00 | 69 | 1015.8 |
| 20260507123542 | 11 | 177 | 1.6 | 1.6 | 0.00 | 0.00 | 0.00 | 68 | 1015.7 |
| 20260507123038 | 11 | 192 | 0.0 | 0.0 | 0.00 | 0.00 | 0.00 | 72 | 1015.9 |
| 20260507122534 | 11 | 179 | 0.0 | 0.0 | 0.00 | 0.00 | 0.00 | 73 | 1015.7 |
| 20260507122030 | 11 | 174 | 0.0 | 0.0 | 0.00 | 0.00 | 0.00 | 73 | 1015.6 |
| 20260507121525 | 11 | 174 | 0.0 | 0.0 | 0.00 | 0.00 | 0.00 | 71 | 1015.7 |
| 20260507121021 | 10 | 141 | 0.0 | 0.0 | 0.00 | 0.00 | 0.00 | 75 | 1015.8 |
| 20260507120518 | 10 | 140 | 0.0 | 0.0 | 0.00 | 0.00 | 0.00 | 76 | 1015.6 |
| 20260507120015 | 10 | 128 | 0.0 | 0.0 | 0.00 | 0.00 | 0.00 | 78 | 1015.4 |
| 20260507115511 | 10 | 11 | 0.0 | 0.0 | 0.00 | 0.00 | 0.00 | 78 | 1015.6 |
| 20260507115007 | 10 | 13 | 0.0 | 0.0 | 0.00 | 0.00 | 0.00 | 78 | 1015.6 |
| 20260507114503 | 10 | 13 | 0.0 | 0.0 | 0.00 | 0.00 | 0.00 | 81 | 1015.3 |
| 20260507114000 | 10 | 13 | 0.0 | 0.0 | 0.00 | 0.00 | 0.00 | 82 | 1015.6 |
| 20260507113458 | 10 | 14 | 0.0 | 0.0 | 0.00 | 0.00 | 0.00 | 83 | 1015.4 |
| 20260507112955 | 10 | 14 | 0.0 | 0.0 | 0.00 | 0.00 | 0.00 | 81 | 1015.6 |
| 20260507112452 | 10 | 16 | 0.0 | 0.0 | 0.00 | 0.00 | 0.00 | 84 | 1015.6 |
| 20260507111949 | 10 | 16 | 0.0 | 0.0 | 0.00 | 0.00 | 0.00 | 82 | 1015.2 |
| 20260507111446 | 10 | 16 | 0.0 | 0.0 | 0.00 | 0.00 | 0.00 | 84 | 1015.6 |
| 20260507110942 | 10 | 17 | 0.0 | 0.0 | 0.00 | 0.00 | 0.00 | 85 | 1015.3 |
| 20260507110439 | 10 | 17 | 0.0 | 0.0 | 0.00 | 0.00 | 0.00 | 86 | 1015.3 |
| 20260507105935 | 10 | 17 | 0.0 | 0.0 | 0.00 | 0.00 | 0.00 | 85 | 1015.2 |
| 20260507105432 | 10 | 17 | 0.0 | 0.0 | 0.00 | 0.00 | 0.00 | 83 | 1014.8 |
| 20260507104929 | 9 | 17 | 0.0 | 0.0 | 0.00 | 0.00 | 0.00 | 82 | 1015.0 |
| 20260507104426 | 10 | 17 | 0.0 | 0.0 | 0.00 | 0.00 | 0.00 | 84 | 1015.1 |
| 20260507103921 | 10 | 17 | 0.0 | 0.0 | 0.00 | 0.00 | 0.00 | 85 | 1014.8 |
| 20260507103418 | 10 | 45 | 0.0 | 0.0 | 0.00 | 0.00 | 0.00 | 82 | 1014.8 |
| 20260507102914 | 10 | 40 | 0.0 | 0.0 | 0.00 | 0.00 | 0.00 | 82 | 1014.8 |
| 20260507102411 | 9 | 32 | 0.0 | 0.0 | 0.00 | 0.00 | 0.00 | 82 | 1014.7 |
| 20260507101908 | 10 | 13 | 0.0 | 0.0 | 0.00 | 0.00 | 0.00 | 84 | 1014.6 |
| 20260507101403 | 9 | 17 | 0.0 | 0.0 | 0.00 | 0.00 | 0.00 | 84 | 1014.4 |
| 20260507100900 | 10 | 18 | 0.0 | 0.0 | 0.00 | 0.00 | 0.00 | 84 | 1014.4 |
| 20260507100357 | 10 | 54 | 0.0 | 0.0 | 0.00 | 0.00 | 0.00 | 83 | 1014.4 |
| 20260507095855 | 10 | 16 | 0.0 | 0.0 | 0.00 | 0.00 | 0.00 | 84 | 1014.4 |
| 20260507095352 | 10 | 16 | 0.0 | 0.0 | 0.00 | 0.00 | 0.00 | 83 | 1014.4 |
| 20260507094849 | 10 | 42 | 0.0 | 0.0 | 0.00 | 0.00 | 0.00 | 83 | 1014.4 |
| 20260507094345 | 10 | 3 | 0.0 | 0.0 | 0.00 | 0.00 | 0.00 | 80 | 1014.6 |
| 20260507093843 | 10 | 355 | 0.0 | 0.0 | 0.00 | 0.00 | 0.00 | 79 | 1014.5 |
| 20260507093341 | 10 | 355 | 0.0 | 0.0 | 0.00 | 0.00 | 0.00 | 80 | 1014.5 |
| 20260507092839 | 10 | 355 | 1.6 | 1.6 | 0.00 | 0.00 | 0.00 | 75 | 1014.4 |
| 20260507092334 | 10 | 13 | 1.6 | 3.2 | 0.00 | 0.00 | 0.00 | 73 | 1014.4 |
| 20260507091831 | 10 | 3 | 1.6 | 3.2 | 0.00 | 0.00 | 0.00 | 71 | 1014.4 |
| 20260507091328 | 10 | 11 | 3.2 | 4.8 | 0.00 | 0.00 | 0.00 | 73 | 1014.3 |
| 20260507090823 | 10 | 356 | 1.6 | 3.2 | 0.00 | 0.00 | 0.00 | 78 | 1014.4 |
| 20260507090320 | 10 | 12 | 1.6 | 3.2 | 0.00 | 0.00 | 0.00 | 75 | 1014.2 |
| 20260507085817 | 10 | 10 | 1.6 | 1.6 | 0.00 | 0.00 | 0.00 | 76 | 1014.4 |
| 20260507085314 | 10 | 11 | 1.6 | 1.6 | 0.00 | 0.00 | 0.00 | 76 | 1014.3 |
| 20260507084811 | 11 | 37 | 0.0 | 1.6 | 0.00 | 0.00 | 0.00 | 77 | 1014.4 |
| 20260507084307 | 11 | 49 | 1.6 | 3.2 | 0.00 | 0.00 | 0.00 | 77 | 1014.2 |
| 20260507083805 | 11 | 54 | 0.0 | 1.6 | 0.00 | 0.00 | 0.00 | 78 | 1014.3 |
| 20260507083301 | 11 | 56 | 1.6 | 3.2 | 0.00 | 0.00 | 0.00 | 75 | 1014.2 |
| 20260507082757 | 11 | 45 | 3.2 | 3.2 | 0.00 | 0.00 | 0.00 | 76 | 1014.0 |
| 20260507082253 | 11 | 28 | 3.2 | 4.8 | 0.00 | 0.00 | 0.00 | 77 | 1014.1 |
| 20260507081750 | 11 | 3 | 1.6 | 3.2 | 0.00 | 0.00 | 0.00 | 76 | 1014.2 |
| 20260507081246 | 11 | 28 | 3.2 | 3.2 | 0.00 | 0.00 | 0.00 | 77 | 1014.2 |
| 20260507080743 | 11 | 350 | 1.6 | 3.2 | 0.00 | 0.00 | 0.00 | 80 | 1014.3 |
| 20260507080239 | 11 | 5 | 0.0 | 0.0 | 0.00 | 0.00 | 0.00 | 82 | 1014.0 |
| 20260507075735 | 11 | 2 | 0.0 | 1.6 | 0.00 | 0.00 | 0.00 | 83 | 1014.2 |
| 20260507075231 | 11 | 4 | 1.6 | 1.6 | 0.00 | 0.00 | 0.00 | 83 | 1014.2 |
| 20260507074727 | 11 | 17 | 1.6 | 3.2 | 0.00 | 0.00 | 0.00 | 81 | 1014.1 |
| 20260507074226 | 11 | 10 | 0.0 | 0.0 | 0.00 | 0.00 | 0.00 | 86 | 1014.0 |
| 20260507073722 | 11 | 10 | 0.0 | 0.0 | 0.00 | 0.00 | 0.00 | 85 | 1014.1 |
| 20260507073219 | 11 | 10 | 0.0 | 0.0 | 0.00 | 0.00 | 0.00 | 85 | 1014.1 |
| 20260507072717 | 11 | 10 | 0.0 | 0.0 | 0.00 | 0.00 | 0.00 | 81 | 1014.0 |
| 20260507072214 | 11 | 7 | 0.0 | 1.6 | 0.00 | 0.00 | 0.00 | 81 | 1013.8 |
| 20260507071711 | 11 | 5 | 1.6 | 3.2 | 0.00 | 0.00 | 0.00 | 82 | 1013.7 |
| 20260507071207 | 11 | 28 | 3.2 | 4.8 | 0.00 | 0.00 | 0.00 | 82 | 1013.9 |
| 20260507070705 | 11 | 35 | 0.0 | 3.2 | 0.00 | 0.00 | 0.00 | 89 | 1013.9 |
| 20260507070201 | 11 | 19 | 1.6 | 1.6 | 0.00 | 0.00 | 0.00 | 90 | 1013.8 |
| 20260507065657 | 11 | 19 | 1.6 | 1.6 | 0.00 | 0.00 | 0.00 | 91 | 1013.9 |
| 20260507065155 | 11 | 38 | 0.0 | 0.0 | 0.00 | 0.00 | 0.00 | 91 | 1014.1 |
| 20260507064652 | 11 | 38 | 0.0 | 0.0 | 0.00 | 0.00 | 0.00 | 91 | 1014.0 |
| 20260507064150 | 11 | 38 | 0.0 | 0.0 | 0.00 | 0.00 | 0.00 | 90 | 1014.1 |
| 20260507063648 | 11 | 38 | 0.0 | 0.0 | 0.00 | 0.00 | 0.00 | 91 | 1014.2 |
| 20260507063144 | 11 | 43 | 0.0 | 0.0 | 0.00 | 0.00 | 0.00 | 91 | 1014.0 |
| 20260507062641 | 11 | 59 | 0.0 | 0.0 | 0.00 | 0.00 | 0.00 | 90 | 1014.1 |
| 20260507062139 | 11 | 126 | 0.0 | 0.0 | 0.00 | 0.00 | 0.00 | 88 | 1014.1 |
| 20260507061637 | 11 | 139 | 0.0 | 0.0 | 0.00 | 0.00 | 0.00 | 88 | 1014.2 |
| 20260507061134 | 11 | 139 | 0.0 | 0.0 | 0.00 | 0.00 | 0.00 | 88 | 1014.2 |
| 20260507060632 | 11 | 139 | 0.0 | 0.0 | 0.00 | 0.00 | 0.00 | 87 | 1014.4 |
| 20260507060128 | 11 | 139 | 0.0 | 0.0 | 0.00 | 0.00 | 0.00 | 87 | 1014.3 |
| 20260507055624 | 11 | 139 | 0.0 | 0.0 | 0.00 | 0.00 | 0.00 | 86 | 1014.2 |
| 20260507055120 | 11 | 139 | 0.0 | 0.0 | 0.00 | 0.00 | 0.00 | 86 | 1014.3 |
| 20260507054616 | 11 | 180 | 0.0 | 0.0 | 0.00 | 0.00 | 0.00 | 86 | 1014.5 |
| 20260507054113 | 11 | 243 | 0.0 | 0.0 | 0.00 | 0.00 | 0.00 | 88 | 1014.4 |
| 20260507053611 | 11 | 243 | 0.0 | 0.0 | 0.00 | 0.00 | 0.00 | 87 | 1014.3 |
| 20260507053110 | 11 | 243 | 0.0 | 0.0 | 0.00 | 0.00 | 0.00 | 88 | 1014.4 |
| 20260507052607 | 11 | 243 | 0.0 | 1.6 | 0.00 | 0.00 | 0.00 | 87 | 1014.2 |
| 20260507052103 | 11 | 236 | 0.0 | 0.0 | 0.00 | 0.00 | 0.00 | 87 | 1014.4 |
| 20260507051601 | 11 | 149 | 0.0 | 0.0 | 0.00 | 0.00 | 0.00 | 87 | 1014.2 |
| 20260507051058 | 12 | 149 | 0.0 | 0.0 | 0.00 | 0.00 | 0.00 | 85 | 1014.1 |
| 20260507050554 | 11 | 129 | 0.0 | 0.0 | 0.00 | 0.00 | 0.00 | 83 | 1014.3 |
| 20260507050051 | 11 | 129 | 0.0 | 0.0 | 0.00 | 0.00 | 0.00 | 85 | 1014.2 |
| 20260507045548 | 11 | 96 | 0.0 | 0.0 | 0.00 | 0.00 | 0.00 | 86 | 1014.2 |
| 20260507045045 | 12 | 96 | 0.0 | 0.0 | 0.00 | 0.00 | 0.00 | 84 | 1014.2 |
| 20260507044541 | 12 | 34 | 0.0 | 0.0 | 0.00 | 0.00 | 0.00 | 81 | 1014.0 |
| 20260507044039 | 11 | 8 | 0.0 | 0.0 | 0.00 | 0.00 | 0.00 | 82 | 1014.2 |
| 20260507043534 | 12 | 8 | 0.0 | 0.0 | 0.00 | 0.00 | 0.00 | 84 | 1014.1 |
| 20260507043032 | 12 | 8 | 0.0 | 0.0 | 0.00 | 0.00 | 0.00 | 82 | 1014.3 |
| 20260507042527 | 12 | 8 | 0.0 | 0.0 | 0.00 | 0.00 | 0.00 | 81 | 1014.0 |
| 20260507042024 | 12 | 8 | 0.0 | 3.2 | 0.00 | 0.00 | 0.00 | 77 | 1014.3 |
| 20260507041521 | 12 | 109 | 0.0 | 1.6 | 0.00 | 0.00 | 0.00 | 77 | 1014.5 |
| 20260507041017 | 12 | 127 | 3.2 | 4.8 | 0.00 | 0.00 | 0.00 | 79 | 1014.3 |
| 20260507040514 | 12 | 105 | 1.6 | 3.2 | 0.00 | 0.00 | 0.00 | 83 | 1014.3 |
| 20260507040009 | 12 | 92 | 1.6 | 3.2 | 0.00 | 0.00 | 0.00 | 78 | 1014.2 |
| 20260507035506 | 12 | 195 | 0.0 | 0.0 | 0.00 | 0.00 | 0.00 | 79 | 1014.1 |
| 20260507035002 | 12 | 326 | 4.8 | 6.4 | 0.00 | 0.00 | 0.00 | 77 | 1014.3 |
| 20260507034459 | 12 | 300 | 0.0 | 3.2 | 0.00 | 0.00 | 0.00 | 79 | 1014.1 |
| 20260507033957 | 12 | 284 | 1.6 | 1.6 | 0.00 | 0.00 | 0.00 | 79 | 1014.4 |
| 20260507033455 | 12 | 214 | 0.0 | 1.6 | 0.00 | 0.00 | 0.00 | 78 | 1014.1 |
| 20260507032952 | 12 | 253 | 3.2 | 4.8 | 0.00 | 0.00 | 0.00 | 78 | 1014.6 |
| 20260507032449 | 12 | 245 | 3.2 | 3.2 | 0.00 | 0.00 | 0.00 | 78 | 1014.4 |
| 20260507031945 | 12 | 254 | 4.8 | 4.8 | 0.00 | 0.00 | 0.00 | 78 | 1014.4 |
| 20260507031441 | 12 | 222 | 0.0 | 3.2 | 0.00 | 0.00 | 0.00 | 78 | 1014.3 |
| 20260507030938 | 12 | 339 | 11.3 | 12.9 | 0.00 | 0.00 | 0.00 | 77 | 1013.6 |
| 20260507030435 | 12 | 98 | 4.8 | 4.8 | 0.00 | 0.00 | 0.00 | 78 | 1013.7 |
| 20260507025932 | 12 | 320 | 3.2 | 3.2 | 0.00 | 0.00 | 0.00 | 78 | 1014.3 |
| 20260507025430 | 12 | 302 | 1.6 | 4.8 | 0.00 | 0.00 | 0.00 | 79 | 1014.3 |
| 20260507024927 | 12 | 323 | 8.0 | 11.3 | 0.00 | 0.00 | 0.00 | 80 | 1014.4 |
| 20260507024424 | 12 | 358 | 9.7 | 12.9 | 0.00 | 0.00 | 0.00 | 80 | 1014.2 |
| 20260507023920 | 12 | 0 | 6.4 | 9.7 | 0.00 | 0.00 | 0.00 | 79 | 1014.3 |
| 20260507023417 | 12 | 29 | 4.8 | 11.3 | 0.00 | 0.00 | 0.00 | 79 | 1014.2 |
| 20260507022914 | 12 | 38 | 4.8 | 22.5 | 0.00 | 0.00 | 0.00 | 80 | 1014.0 |
| 20260507022411 | 13 | 308 | 9.7 | 14.5 | 0.00 | 0.00 | 0.00 | 80 | 1014.0 |
| 20260507021907 | 13 | 345 | 9.7 | 14.5 | 0.00 | 0.00 | 0.00 | 82 | 1014.0 |
| 20260507021408 | 13 | 17 | 4.8 | 11.3 | 0.00 | 0.00 | 0.00 | 83 | 1013.4 |
| 20260507020906 | 13 | 326 | 9.7 | 11.3 | 0.00 | 0.00 | 0.00 | 82 | 1013.3 |
| 20260507020402 | 13 | 321 | 3.2 | 6.4 | 0.00 | 0.00 | 0.00 | 83 | 1013.5 |
| 20260507015859 | 13 | 347 | 8.0 | 9.7 | 0.00 | 0.00 | 0.00 | 83 | 1013.5 |
| 20260507015357 | 13 | 333 | 8.0 | 12.9 | 0.00 | 0.00 | 0.00 | 84 | 1013.2 |
| 20260507014854 | 13 | 336 | 1.6 | 3.2 | 0.00 | 0.00 | 0.00 | 85 | 1013.6 |
| 20260507014350 | 13 | 340 | 0.0 | 1.6 | 0.00 | 0.00 | 0.00 | 85 | 1013.9 |
| 20260507013847 | 13 | 331 | 1.6 | 3.2 | 0.00 | 0.00 | 0.00 | 84 | 1013.9 |
| 20260507013344 | 13 | 338 | 4.8 | 4.8 | 0.00 | 0.00 | 0.00 | 84 | 1013.7 |
| 20260507012841 | 13 | 12 | 3.2 | 6.4 | 0.00 | 0.00 | 0.00 | 83 | 1013.5 |
| 20260507012337 | 13 | 351 | 6.4 | 11.3 | 0.00 | 0.00 | 0.00 | 83 | 1013.5 |
| 20260507011835 | 13 | 343 | 6.4 | 12.9 | 0.00 | 0.00 | 0.00 | 83 | 1013.1 |
| 20260507011332 | 13 | 334 | 6.4 | 14.5 | 0.00 | 0.00 | 0.00 | 83 | 1013.7 |
| 20260507010831 | 13 | 355 | 6.4 | 6.4 | 0.00 | 0.00 | 0.00 | 83 | 1013.4 |
| 20260507010327 | 13 | 340 | 3.2 | 4.8 | 0.00 | 0.00 | 0.00 | 81 | 1013.5 |
| 20260507005825 | 13 | 312 | 1.6 | 3.2 | 0.00 | 0.00 | 0.00 | 81 | 1013.1 |
| 20260507005321 | 13 | 255 | 1.6 | 4.8 | 0.00 | 0.00 | 0.00 | 81 | 1013.5 |
| 20260507004818 | 14 | 264 | 0.0 | 1.6 | 0.00 | 0.00 | 0.00 | 82 | 1013.4 |
| 20260507004315 | 14 | 225 | 1.6 | 1.6 | 0.00 | 0.00 | 0.00 | 80 | 1013.2 |
| 20260507003812 | 14 | 225 | 0.0 | 3.2 | 0.00 | 0.00 | 0.00 | 78 | 1013.1 |
| 20260507003307 | 14 | 297 | 0.0 | 0.0 | 0.00 | 0.00 | 0.00 | 79 | 1013.4 |
| 20260507002757 | 14 | 335 | 0.0 | 0.0 | 0.00 | 0.00 | 0.00 | 80 | 1013.4 |
| 20260507002253 | 14 | 280 | 0.0 | 3.2 | 0.00 | 0.00 | 0.00 | 80 | 1013.7 |
| 20260507001750 | 14 | 334 | 1.6 | 4.8 | 0.00 | 0.00 | 0.00 | 79 | 1013.8 |
| 20260507001248 | 14 | 259 | 1.6 | 1.6 | 0.00 | 0.00 | 0.00 | 80 | 1013.7 |
| 20260507000744 | 14 | 307 | 1.6 | 3.2 | 0.00 | 0.00 | 0.00 | 80 | 1013.4 |
| 20260507000240 | 15 | 279 | 1.6 | 4.8 | 0.00 | 0.00 | 0.00 | 80 | 1013.2 |
| 20260506235736 | 15 | 12 | 3.2 | 6.4 | 0.00 | 0.00 | 0.00 | 79 | 1013.2 |
| 20260506235233 | 15 | 321 | 3.2 | 3.2 | 0.00 | 0.00 | 0.00 | 79 | 1013.2 |
| 20260506234730 | 15 | 313 | 0.0 | 3.2 | 0.00 | 0.00 | 0.00 | 80 | 1013.2 |
| 20260506234227 | 15 | 333 | 1.6 | 4.8 | 0.00 | 0.00 | 0.00 | 79 | 1013.3 |
| 20260506233725 | 15 | 274 | 1.6 | 3.2 | 0.00 | 0.00 | 0.00 | 80 | 1013.1 |
| 20260506233221 | 15 | 238 | 3.2 | 4.8 | 0.00 | 0.00 | 0.00 | 79 | 1012.9 |
| 20260506232718 | 15 | 321 | 3.2 | 4.8 | 0.00 | 0.00 | 0.00 | 79 | 1012.9 |
| 20260506232218 | 15 | 316 | 1.6 | 3.2 | 0.00 | 0.00 | 0.00 | 79 | 1013.0 |
| 20260506231715 | 15 | 302 | 3.2 | 4.8 | 0.00 | 0.00 | 0.00 | 79 | 1012.9 |
| 20260506231214 | 15 | 354 | 1.6 | 4.8 | 0.00 | 0.00 | 0.00 | 79 | 1012.3 |
| 20260506230710 | 15 | 352 | 4.8 | 6.4 | 0.00 | 0.00 | 0.00 | 79 | 1012.5 |
| 20260506230207 | 16 | 342 | 3.2 | 4.8 | 0.00 | 0.00 | 0.00 | 78 | 1012.2 |
| 20260506225703 | 16 | 318 | 0.0 | 4.8 | 0.00 | 0.00 | 0.00 | 77 | 1012.2 |
| 20260506225200 | 16 | 355 | 4.8 | 6.4 | 0.00 | 0.00 | 0.00 | 75 | 1012.0 |
| 20260506224657 | 16 | 313 | 1.6 | 3.2 | 0.00 | 0.00 | 0.00 | 77 | 1012.3 |
| 20260506224154 | 16 | 219 | 3.2 | 4.8 | 0.00 | 0.00 | 0.00 | 76 | 1012.3 |
| 20260506223650 | 16 | 260 | 1.6 | 6.4 | 0.00 | 0.00 | 0.00 | 77 | 1012.3 |
| 20260506223146 | 16 | 325 | 3.2 | 4.8 | 0.00 | 0.00 | 0.00 | 76 | 1012.3 |
| 20260506222643 | 16 | 262 | 1.6 | 3.2 | 0.00 | 0.00 | 0.00 | 77 | 1012.1 |
| 20260506222139 | 16 | 288 | 0.0 | 3.2 | 0.00 | 0.00 | 0.00 | 76 | 1012.0 |
| 20260506221637 | 17 | 349 | 6.4 | 6.4 | 0.00 | 0.00 | 0.00 | 76 | 1012.0 |
| 20260506221135 | 17 | 347 | 3.2 | 9.7 | 0.00 | 0.00 | 0.00 | 76 | 1012.0 |
| 20260506220631 | 16 | 267 | 6.4 | 11.3 | 0.00 | 0.00 | 0.00 | 74 | 1011.7 |
| 20260506220126 | 16 | 266 | 3.2 | 4.8 | 0.00 | 0.00 | 0.00 | 77 | 1011.8 |
| 20260506215623 | 17 | 268 | 8.0 | 9.7 | 0.00 | 0.00 | 0.00 | 77 | 1011.8 |
| 20260506215118 | 17 | 314 | 6.4 | 6.4 | 0.00 | 0.00 | 0.00 | 77 | 1011.7 |
| 20260506214616 | 17 | 301 | 3.2 | 6.4 | 0.00 | 0.00 | 0.00 | 77 | 1011.6 |
| 20260506214113 | 17 | 283 | 3.2 | 6.4 | 0.00 | 0.00 | 0.00 | 77 | 1011.4 |
| 20260506213611 | 17 | 258 | 8.0 | 11.3 | 0.00 | 0.00 | 0.00 | 77 | 1011.4 |
| 20260506213108 | 17 | 266 | 1.6 | 9.7 | 0.00 | 0.00 | 0.00 | 77 | 1011.2 |
| 20260506212605 | 18 | 232 | 3.2 | 6.4 | 0.00 | 0.00 | 0.00 | 77 | 1011.3 |
| 20260506212100 | 18 | 316 | 9.7 | 11.3 | 0.00 | 0.00 | 0.00 | 76 | 1010.9 |